Regional Weather Roundup
Issued by NWS

Home | Current Version | Previous Version | Graphics & Text | Print | Product List | Glossary On
Versions: 1 2 3 4 5 6 7 8 9 10 11 12 13 14 15 16 17 18 19 20 21 22 23 24 25 26 27 28 29 30 31 32 33 34 35 36 37 38 39 40 41 42 43 44 45 46 47 48 49 50
000
ASUS45 KSLC 282210
RWRUT

UTAH REGIONAL WEATHER ROUNDUP
NATIONAL WEATHER SERVICE SALT LAKE CITY UT
300 PM MST WED JAN 28 2015

UTZ001>011-023>025-282300-

NORTHERN UTAH

CITY           SKY/WX    TMP DP  RH WIND       PRES   REMARKS
BRIGHAM CITY   CLOUDY    46  37  71 CALM      30.31S
HILL AFB       CLOUDY    45  32  60 E1        30.30R
LOGAN          CLOUDY    43  39  86 CALM      30.29S
OGDEN          CLOUDY    46  36  68 SW3       30.30R
PROVO AIRPORT  PTSUNNY   48  36  61 NW9       30.28S
SALT LAKE CITY PTSUNNY   49  36  61 N8        30.29S
VERNAL         MOSUNNY   49  30  48 CALM      30.23S
WENDOVER       MOSUNNY   50  34  53 E5        30.29S
HEBER CITY     CLOUDY    43  34  70 CALM      30.27S
WEST JORDAN    CLOUDY    48  37  66 N6        30.29S

$$

UTZ012>022-026-027-282300-

SOUTHERN/CENTRAL UTAH

CITY           SKY/WX    TMP DP  RH WIND       PRES   REMARKS
BLANDING       MOSUNNY   51  33  51 S7        30.29S
BRYCE CANYON   SUNNY     47  25  42 CALM      30.25F
CEDAR CITY     SUNNY     53  32  44 N9        30.22F
DELTA          MOSUNNY   52  33  47 N10       30.26S
HANKSVILLE     SUNNY     54  32  43 S3        30.24S
MILFORD        MOSUNNY   54  33  45 N8        30.24S
MOAB/CYNLANDS  SUNNY     54  35  48 NW6       30.21F
PRICE          CLOUDY    49  30  48 W6        30.24S
ST GEORGE      PTCLDY    55  41  58 CALM      30.22F
KANAB          MOSUNNY   52  36  54 S5        30.25F

$$

REGIONAL REPORTS     COLORADO/ARIZONA

CITY           SKY/WX    TMP DP  RH WIND       PRES   REMARKS
CRAIG, CO      CLOUDY    43  30  60 NW5       30.24R
GRAND JUNCTION SUNNY     52  33  48 NW9       30.22S
RIFLE          MOSUNNY   52  28  39 S10       30.21F
MONTROSE       SUNNY     53  27  36 NW6       30.22F
CORTEZ         SUNNY     53  30  41 W10       30.22F
PAGE, AZ       NOT AVBL
GRAND CANYON   MOSUNNY   53  25  33 VRB5      30.24S
KINGMAN        MOSUNNY   61  43  51 N8        30.17F
FLAGSTAFF      SUNNY     55  19  24 CALM      30.22F

$$

REGIONAL REPORTS    NEVADA/IDAHO/WYOMING

CITY           SKY/WX    TMP DP  RH WIND       PRES   REMARKS
LAS VEGAS, NV  PTSUNNY   63  44  50 SE3       30.15F
ELY            SUNNY     49  32  52 N15       30.26F
ELKO           CLOUDY    50  34  54 VRB5      30.30S
POCATELLO, ID  CLOUDY    38  38 100 W8        30.32F WCI  32
BURLEY         PTSUNNY   46  37  71 W10       30.30F
EVANSTON, WY   FLURRIES  37  32  82 SW5       30.28S WCI  33
ROCK SPRINGS   CLOUDY    41  28  60 W20       30.22S
KEMMERER       PTSUNNY   36  32  87 W9        30.26R WCI  29

$$



USA.gov is the U.S. government's official web portal to all federal, state and local government web resources and services.